Location: Newark
(25.4297°S, 49.2719°W)
Time: 16:21:58
(UTC+00:00)

Hubble Space Telescope - Pass Details

Date: 23 June 2021
Orbit: 535 x 539 km, 28.5° (Epoch: 25 July)

Event Time Altitude Azimuth Distance (km) Brightness Sun altitude
Exits shadow 09:00:01 14° 295° (WNW) 1,574 2.7 -13.9°
Maximum altitude 09:02:14 20° 333° (NNW) 1,286 2.6 -13.5°
Drops below altitude 10° 09:05:16 10° 20° (NNE) 1,785 4.0 -12.8°
Sets 09:07:59 0° 38° (NE) 2,671 5.4 -12.2°
